weather.gov     
National Weather Service

Terminal Aerodrome Forecast
NWS Homepage
This page is being discontinued on March 12, 2014.
The same data is available at this site. Please update your bookmarks.
Thank you, and we apologize for the inconvenience.
Please send an email to SR-SRH.Webmaster@noaa.gov with any concerns.


Current Version
Previous Version:    01  02  03  04  05  06  07  08  09  10  11  12  13  14  15  16  17  18  19  20  21  22  23  24  25  
[Printable]
379
FTAK31 PAJN 281700
TAFAYA
TAF
PAYA 281737Z 2818/2918 VRB04KT P6SM BKN070
     FM282100 VRB03KT P6SM BKN100
     FM290300 00000KT P6SM VCSH BKN050 OVC100
     FM290900 09005KT P6SM VCSH BKN025 OVC050
      AMD LTD TO CLD VIS AND WIND 2901/2910=


U.S. Dept. of Commerce
NOAA National Weather Service
1325 East West Highway
Silver Spring, MD 20910
E-mail: w-nws.webmaster@noaa.gov
Page last modified: May 16, 2007
NATIONAL WEATHER SERVICE: for Safety, for Work, for Fun - FOR LIFE